Theta_e
315 315 316 320 320 321 322 321 319 319 319 313 313 315 315 316 316 318 320 322 324 325 321 324 330 328 327 326 328 326 326 331 328 326 327 334 335 336 337 337 337 336 339 339 338 336 333 334 333 329 329 329 328 327 327 329 330 329 330 329 330 331 331 332 332 333 334 332 331 331 330 330 331 331 331 331 331 332 332 333 333 333 333 332 333 332 331 329 330 331 330 330 330 329 330 330 331
316 315 317 320 319 322 322 321 318 315 315 311 313 316 315 317 317 320 322 322 323 321 320 327 329 325 324 324 326 325 330 331 328 331 333 334 335 336 337 337 338 337 339 339 338 337 336 334 331 330 329 330 328 325 324 327 330 330 329 329 331 331 332 332 332 333 334 333 332 332 330 330 330 331 331 332 332 332 332 332 333 333 332 333 334 332 330 328 329 330 330 330 330 330 329 330 330
316 318 319 322 320 322 322 320 317 312 311 310 312 316 316 317 319 321 321 320 321 321 324 327 326 323 323 323 325 325 331 329 328 333 335 336 336 336 336 337 338 338 339 339 339 338 337 334 331 330 330 331 329 326 323 324 329 330 329 329 331 332 332 332 332 332 334 334 332 331 330 329 330 331 331 332 332 332 332 331 332 333 333 333 333 332 330 329 330 330 330 331 331 331 330 330 330
318 321 322 324 323 322 322 320 318 313 310 310 312 316 316 318 320 318 319 320 321 322 326 328 325 324 322 325 326 325 331 331 332 335 335 337 338 337 336 337 337 337 339 339 339 338 338 334 331 331 330 331 330 329 325 324 327 326 328 330 330 331 332 332 332 333 333 333 332 331 330 330 330 330 331 331 331 331 332 332 332 332 332 332 332 331 331 331 330 330 330 330 330 331 331 330 330
319 321 322 325 324 322 322 319 318 315 311 313 312 315 317 318 319 318 320 322 320 320 324 328 327 325 324 326 326 326 331 332 334 336 336 338 338 336 336 337 336 337 339 339 339 339 337 334 330 331 330 330 330 329 326 323 322 321 324 329 330 331 332 332 332 333 332 332 332 332 332 331 330 330 330 330 330 330 331 331 331 331 330 331 331 331 332 332 331 330 330 330 331 330 330 330 330
319 319 320 321 321 319 319 316 314 314 314 316 315 316 317 317 319 320 321 321 318 317 319 324 326 325 327 327 327 329 332 333 335 336 336 338 337 336 336 337 336 337 339 339 339 339 337 334 330 331 331 331 330 328 326 323 320 319 321 327 330 331 332 331 332 332 332 332 332 331 331 331 329 329 329 329 329 330 330 330 330 330 329 330 331 331 331 331 330 330 330 330 330 330 330 330 330
321 320 320 319 318 318 320 315 314 316 314 314 315 316 316 316 320 322 321 320 318 315 314 320 324 324 326 326 328 331 330 333 335 336 336 338 337 336 336 337 337 337 339 339 338 338 338 334 329 330 332 331 330 329 327 324 322 320 319 324 329 331 331 331 332 331 331 332 331 332 332 331 330 329 328 328 328 329 330 329 330 330 329 329 330 330 330 330 330 330 330 330 330 330 329 330 329
321 321 320 321 319 319 320 316 316 317 312 311 312 314 315 316 320 322 321 320 318 316 316 320 321 322 324 323 330 332 329 332 333 336 337 338 337 335 336 336 337 337 339 339 338 338 337 335 329 329 332 331 330 330 329 325 323 321 319 323 328 329 328 329 331 331 331 332 331 332 332 331 330 329 328 327 327 329 330 329 330 330 329 330 330 330 330 329 329 330 330 329 330 330 329 329 329
318 319 320 322 319 318 317 316 316 315 313 312 311 313 314 317 321 322 320 318 316 317 319 321 319 320 323 323 329 332 331 332 332 335 336 337 336 335 336 336 337 337 339 338 338 338 336 336 332 329 332 332 331 330 330 327 325 323 319 321 325 325 324 327 331 331 331 332 331 332 332 329 329 328 327 327 327 328 330 330 330 330 330 330 330 330 330 329 329 329 329 329 330 329 329 328 328
318 318 321 322 318 316 313 314 315 314 313 313 313 313 314 315 319 321 319 317 316 319 320 318 317 318 322 324 328 330 332 332 332 335 336 337 336 336 336 335 336 337 338 338 338 338 337 336 334 332 332 332 332 331 330 328 326 324 320 319 321 322 323 327 330 331 331 332 332 331 330 327 326 328 328 327 327 326 328 329 330 330 329 329 329 329 329 329 329 329 329 328 329 329 328 328 328
320 319 321 320 316 313 312 313 315 315 314 314 314 313 314 315 318 319 317 316 316 320 319 315 317 318 321 324 327 329 331 332 334 336 336 337 336 336 336 335 336 336 338 337 338 338 337 336 335 335 334 333 333 332 330 329 328 325 321 319 320 321 322 325 328 330 330 331 332 331 330 327 325 326 327 327 326 326 326 328 329 329 328 328 328 329 328 329 329 328 329 328 328 328 328 328 328
320 320 321 318 316 314 314 313 315 317 316 315 315 314 313 314 317 317 316 317 316 319 320 316 319 320 321 323 325 328 330 334 334 336 336 337 337 336 335 334 336 336 338 338 338 338 337 337 335 335 335 334 333 332 330 329 329 327 323 320 320 320 320 321 324 328 330 330 330 331 330 329 327 326 325 325 325 325 326 327 328 328 327 328 328 328 328 328 328 328 328 328 328 328 327 328 327
321 322 321 318 316 316 315 314 316 318 317 316 316 314 313 314 317 317 316 317 317 320 319 316 319 320 320 322 322 328 332 335 335 337 336 336 337 336 335 334 335 336 337 337 337 338 338 337 336 336 335 334 334 333 331 330 330 328 326 323 321 320 319 319 320 323 326 328 329 330 330 329 328 327 325 324 325 325 326 327 327 327 327 327 327 327 327 326 327 327 328 328 328 327 327 327 326
321 321 322 318 314 315 316 315 316 316 315 317 315 312 313 315 315 315 316 317 318 318 315 314 318 318 319 320 321 327 334 336 335 337 336 337 337 336 336 335 335 336 336 337 337 337 338 337 337 337 336 335 335 334 332 331 330 329 328 325 322 321 320 319 318 320 321 324 326 328 328 329 327 325 324 325 325 324 326 326 327 327 327 326 325 325 326 326 326 327 327 327 327 327 327 326 325
319 319 320 319 314 315 316 316 317 315 315 317 313 311 313 312 310 313 315 317 316 312 311 314 316 316 317 318 320 327 335 335 335 337 336 337 336 336 336 335 335 335 336 336 337 337 337 337 337 337 337 336 335 335 334 332 331 330 329 327 325 323 322 320 319 318 318 320 322 324 325 326 325 323 323 324 324 324 326 326 326 326 326 326 324 324 325 325 326 326 326 327 327 327 326 325 325
317 318 320 319 315 315 315 315 317 315 315 316 310 310 315 311 308 312 312 313 314 311 313 316 315 317 316 317 322 328 335 335 335 337 336 337 336 336 336 336 336 335 336 336 336 337 337 337 337 337 336 337 336 335 335 334 332 331 330 329 327 326 325 323 321 319 317 317 319 321 321 322 323 323 323 324 323 324 325 324 324 325 326 325 324 324 324 324 325 325 326 326 326 326 326 325 325
316 319 320 318 315 316 316 315 316 314 315 313 308 311 317 313 308 309 308 309 314 313 313 316 316 319 318 319 322 327 333 334 336 337 336 337 336 336 337 336 336 336 336 336 336 337 337 337 337 337 336 336 336 335 336 335 333 332 331 330 329 328 326 325 323 321 318 317 317 318 320 320 322 323 323 324 323 324 324 323 325 326 326 325 324 324 323 323 324 324 324 325 324 324 325 325 325
317 321 318 315 316 316 316 316 315 315 316 313 309 313 317 315 310 310 310 311 314 313 313 315 316 319 322 322 321 325 331 334 336 337 337 337 337 337 337 337 336 336 336 335 336 337 337 337 336 337 336 336 336 335 335 335 334 333 332 331 330 329 327 327 325 323 320 318 317 318 321 321 322 324 323 323 324 324 324 323 325 325 325 324 324 324 323 323 323 323 323 323 323 324 325 325 324
318 321 317 317 318 316 314 315 314 314 316 313 311 313 315 315 313 311 313 314 313 314 315 314 316 319 322 322 322 325 329 334 336 337 338 337 337 337 337 337 336 336 335 335 336 336 336 336 336 336 336 336 336 336 335 335 334 333 333 332 330 330 328 327 326 325 322 320 318 318 321 319 318 322 322 323 323 324 324 324 324 324 324 324 324 323 322 322 322 321 321 322 323 324 324 324 324
316 318 318 319 319 315 311 312 312 310 312 313 311 311 312 313 312 312 313 315 313 315 316 314 316 317 321 324 323 326 330 335 336 337 337 337 337 337 337 337 336 336 335 335 336 336 336 336 336 335 335 336 335 336 336 335 334 333 333 332 331 330 329 328 327 326 325 322 319 319 320 315 314 318 321 322 322 323 323 324 323 323 323 323 323 322 321 321 320 320 321 322 324 324 324 323 323
316 316 317 317 315 315 311 310 310 308 310 313 311 310 312 310 310 312 313 314 313 315 315 315 316 316 321 325 324 327 331 334 335 337 337 336 337 336 337 336 336 337 336 336 335 335 336 336 335 335 335 335 335 335 335 335 334 334 333 333 331 330 329 329 328 327 326 324 321 320 318 315 313 315 320 322 323 322 323 323 323 323 323 323 323 321 320 319 319 320 322 323 323 323 323 323 323
316 313 312 312 312 315 310 307 308 306 308 311 311 312 312 310 310 312 313 314 315 314 314 315 315 315 322 325 325 329 331 333 334 335 336 336 336 336 336 336 336 337 336 337 335 335 335 336 335 334 335 335 335 335 335 335 334 334 333 332 331 330 330 329 329 328 327 325 323 321 318 317 314 313 317 320 322 322 322 322 322 322 322 322 322 321 319 319 318 319 321 322 322 323 323 322 322
316 313 309 309 309 312 308 306 307 306 309 311 311 312 311 310 312 311 312 315 313 310 310 310 311 317 325 326 326 329 330 332 333 334 335 335 335 336 335 335 335 336 337 336 336 336 335 336 336 334 334 335 335 335 335 334 334 334 332 331 330 330 330 330 329 328 327 326 324 323 320 318 317 313 314 317 320 321 322 321 321 321 321 321 321 320 320 319 319 320 321 322 322 322 322 322 322
315 314 310 309 307 309 306 305 305 306 309 310 309 311 310 312 313 308 310 314 310 308 310 309 312 320 326 326 327 329 331 332 333 334 335 335 335 335 335 335 334 335 336 336 335 336 335 335 336 335 335 334 334 334 335 335 334 334 333 331 331 330 330 330 330 328 328 327 326 324 322 320 319 316 313 314 317 319 320 320 320 321 321 320 320 319 319 320 320 321 321 321 321 322 322 322 322
314 314 310 308 307 306 304 303 304 305 307 307 308 311 310 310 310 308 311 313 310 311 316 316 318 323 324 325 327 331 332 332 333 333 334 335 335 334 334 334 333 334 335 336 335 335 335 335 334 335 335 335 335 334 334 335 334 334 333 331 331 331 330 330 329 329 328 327 326 326 324 321 320 318 315 313 314 316 317 318 319 320 319 319 319 318 319 320 320 321 321 321 321 321 321 322 322
313 312 310 309 308 306 304 305 305 306 306 306 310 311 309 307 307 310 312 311 309 311 319 319 319 322 324 325 327 330 331 332 332 332 333 333 333 333 333 333 333 334 334 335 335 335 335 335 335 334 335 335 335 334 334 334 334 334 333 332 332 331 330 330 330 329 328 327 326 325 324 323 321 320 317 314 313 313 314 316 318 318 317 318 317 317 319 320 320 320 321 321 321 321 322 322 322
310 309 309 309 308 307 307 307 306 307 307 307 311 311 309 307 307 313 312 307 307 311 320 320 319 321 323 324 326 329 330 331 331 331 332 331 331 332 332 332 332 333 333 334 334 334 334 336 336 334 334 335 335 334 334 334 334 334 334 333 332 332 331 330 330 329 329 328 327 326 324 324 323 322 320 316 313 312 312 313 315 315 315 315 315 316 319 319 319 320 320 320 321 321 321 321 321
309 310 311 309 309 308 308 309 307 308 308 307 310 310 309 308 309 313 310 305 307 310 317 322 322 321 322 324 324 327 329 329 330 330 331 330 330 330 331 331 332 332 333 333 333 333 334 334 336 335 333 333 333 334 333 333 333 333 334 334 333 332 331 330 330 329 329 329 328 327 326 324 324 323 322 320 316 314 312 311 311 311 311 311 313 316 318 318 318 319 319 319 320 321 321 321 321
309 311 313 310 310 311 309 309 308 309 310 308 309 311 310 311 311 312 307 304 308 310 313 319 321 319 320 323 323 325 327 327 328 329 330 330 330 330 331 332 332 332 332 333 333 333 334 333 333 334 333 333 331 332 333 333 332 332 332 333 334 332 332 331 330 330 329 328 328 328 328 326 325 324 324 323 321 318 314 312 311 310 309 308 310 314 317 317 318 318 318 319 319 320 321 321 321
310 310 312 312 312 313 310 309 309 310 310 307 308 310 312 313 312 310 305 305 310 311 312 315 317 317 318 320 321 323 325 326 326 327 328 329 330 330 331 332 332 333 332 332 332 332 332 332 332 332 332 332 330 329 331 332 332 333 332 333 335 333 333 332 332 331 329 329 328 328 328 327 327 326 326 325 324 323 320 317 315 312 310 309 308 312 316 317 317 317 318 318 319 319 320 320 320
311 311 312 314 312 312 310 309 310 312 309 307 308 309 312 313 311 308 305 306 309 311 313 313 315 316 316 318 319 320 323 325 325 325 327 327 329 329 329 331 331 332 332 331 331 331 331 331 333 334 332 332 330 328 330 332 332 333 333 332 333 334 334 334 333 332 331 330 328 328 328 327 327 327 327 326 325 325 324 323 320 316 313 312 310 311 316 317 317 317 317 317 318 318 318 319 319
311 310 311 313 311 311 311 309 309 312 310 308 309 310 312 313 310 306 305 306 308 310 313 312 312 314 314 316 317 318 320 323 324 324 325 325 326 327 327 328 329 330 330 330 330 330 331 330 331 333 334 334 332 331 330 331 329 329 331 331 331 333 333 334 333 332 332 331 330 329 328 327 327 327 327 326 326 325 325 325 324 321 317 314 312 312 314 316 317 317 316 316 317 317 317 318 318
310 310 312 313 311 311 311 310 309 310 311 309 309 311 313 314 311 306 305 307 308 310 312 311 311 311 312 313 314 315 316 318 321 322 323 324 325 326 326 326 327 328 328 329 329 329 330 330 329 330 333 334 334 334 332 330 329 329 331 332 332 333 333 334 334 332 332 331 331 330 329 328 328 327 326 326 326 325 324 325 325 325 322 316 312 313 314 315 316 316 315 315 315 316 317 317 317
311 311 313 312 311 310 309 310 310 309 311 311 310 311 312 313 311 308 306 307 309 310 311 312 312 311 310 311 311 311 313 314 316 319 320 322 323 324 325 325 325 326 326 327 328 328 328 329 329 328 329 331 332 332 332 331 332 332 333 332 331 331 332 333 334 333 333 332 331 332 331 329 328 328 327 326 325 324 324 325 325 325 325 319 313 312 313 314 315 315 315 314 314 315 316 316 316
311 311 311 311 311 310 310 310 310 309 311 312 312 311 313 313 312 311 308 306 308 311 311 312 311 311 311 310 310 310 310 311 313 315 316 318 320 321 322 323 324 324 325 325 326 327 327 327 327 327 328 328 329 329 329 330 332 333 333 331 328 328 329 331 333 333 332 332 332 331 331 330 330 329 328 327 325 325 325 325 326 325 325 321 315 313 313 314 314 314 314 314 314 314 314 315 316
312 312 312 312 311 309 310 309 308 308 311 313 313 313 313 313 313 312 311 307 308 309 310 310 310 310 310 310 311 311 311 311 312 313 312 312 314 315 318 320 321 322 322 324 325 326 326 326 325 326 326 327 327 328 327 328 329 331 330 329 328 329 329 330 332 331 332 333 332 330 330 330 331 329 329 328 327 326 326 325 325 324 324 322 317 313 313 313 314 314 314 313 313 313 312 313 314
312 313 312 313 312 309 309 310 307 307 311 313 313 313 313 313 313 313 312 309 308 310 310 311 311 311 312 312 312 312 312 313 313 311 309 309 309 309 311 314 317 320 321 322 323 324 325 325 324 324 325 325 326 327 327 327 327 328 330 331 331 330 329 330 330 331 331 332 331 331 330 330 330 329 329 329 327 326 326 325 323 323 323 322 319 317 314 313 313 313 312 312 312 311 311 311 311
311 311 311 312 312 311 310 310 308 306 310 312 312 311 312 313 313 313 312 311 310 311 311 312 313 313 313 314 314 314 314 314 312 310 309 308 307 307 307 308 312 316 318 320 321 322 323 324 324 324 323 324 324 325 327 327 327 327 329 330 331 331 331 330 329 329 330 331 331 331 330 330 330 330 330 329 327 327 326 325 323 323 323 322 321 318 314 312 312 312 311 310 310 310 310 310 309
311 311 311 311 311 311 309 310 309 306 309 312 311 311 312 313 313 313 313 312 312 312 312 313 313 314 314 313 314 314 314 314 312 311 310 309 307 307 306 306 308 310 313 316 318 320 322 323 323 323 323 323 323 324 325 326 326 326 327 328 329 330 331 330 329 329 329 329 330 330 330 330 329 329 329 328 327 327 326 324 323 323 323 321 320 317 314 312 312 311 310 310 308 307 308 308 308
312 313 310 311 313 312 310 311 309 306 308 311 312 313 314 315 314 314 313 312 312 311 310 311 311 312 313 314 315 313 313 315 313 311 310 309 307 306 306 306 306 307 310 313 314 318 320 321 322 322 323 323 322 323 323 324 325 325 325 325 326 327 328 328 328 328 327 327 327 328 328 328 329 328 327 327 327 327 327 325 323 323 322 321 319 316 314 314 313 311 309 308 307 306 306 306 307
313 315 313 313 314 313 312 311 309 308 308 310 313 312 312 316 315 315 314 309 309 309 308 309 310 310 311 313 313 311 311 312 312 311 310 310 308 306 305 306 306 306 308 309 310 313 317 318 320 321 322 322 322 322 322 323 324 324 325 325 325 326 327 326 326 326 326 325 325 326 326 328 329 328 327 327 327 326 326 324 323 323 323 321 319 316 315 315 315 312 309 307 307 307 307 306 306
313 314 314 314 313 313 313 312 311 312 311 311 312 309 309 314 314 314 313 310 309 310 310 310 311 312 310 310 311 311 310 310 310 310 311 311 309 307 306 304 305 305 306 307 308 309 312 315 317 320 321 321 321 321 322 322 323 324 324 325 325 325 326 326 326 325 325 325 325 324 325 327 328 328 327 327 327 326 325 325 323 323 323 321 320 318 316 315 314 312 311 309 307 308 308 306 305
312 313 314 314 314 315 315 314 313 312 310 310 310 310 309 312 314 314 312 311 311 312 312 312 312 312 310 309 309 309 309 308 308 308 308 309 308 308 307 305 304 305 305 306 307 308 309 312 315 318 319 319 320 320 321 321 322 322 323 323 324 325 325 325 325 325 325 325 325 325 325 325 325 325 325 325 326 325 324 324 324 323 322 321 321 319 317 316 315 314 313 311 309 308 307 305 305
313 315 313 313 314 317 318 316 314 312 311 310 311 313 310 309 313 314 310 311 313 312 312 313 313 311 310 309 308 308 307 306 307 307 306 306 307 307 306 306 305 305 305 305 306 307 308 311 314 316 317 318 319 319 320 320 321 321 322 322 323 324 324 325 325 324 325 324 324 324 324 324 324 324 324 324 324 324 324 324 323 322 321 320 319 318 316 316 315 312 311 310 308 306 306 306 306
315 312 311 313 315 317 318 316 313 311 311 311 313 314 311 309 313 313 310 311 313 314 313 313 313 312 312 311 310 309 307 306 306 306 306 307 307 306 305 305 305 304 304 305 306 307 308 310 312 314 316 318 318 318 319 321 321 321 321 322 323 323 323 324 325 324 323 323 323 323 323 323 323 323 324 324 324 323 322 322 321 320 320 319 319 317 316 316 314 311 310 309 307 306 306 306 306
312 308 310 313 313 313 314 314 311 310 310 312 313 312 310 310 313 313 310 311 313 314 314 313 313 313 314 313 311 309 308 309 309 307 308 309 307 307 306 306 305 303 303 305 307 308 309 310 312 314 316 318 318 318 320 321 321 321 321 321 323 323 323 324 323 322 321 322 322 322 321 321 320 320 322 323 322 321 319 318 317 317 318 318 318 317 316 316 314 313 312 310 309 308 306 306 305
310 310 311 311 311 311 312 311 309 310 312 311 309 308 309 309 313 314 312 311 312 314 313 312 312 312 313 312 311 309 308 310 311 309 309 309 307 307 307 307 306 304 305 307 309 310 311 312 313 315 316 317 317 318 320 321 321 321 321 322 323 323 324 323 321 321 322 322 322 321 320 320 320 320 321 320 319 318 316 316 315 314 315 315 316 316 315 315 314 313 313 312 311 309 307 307 305
310 313 312 312 312 311 311 309 309 312 313 309 305 306 309 309 311 313 312 310 309 310 311 312 313 312 313 313 311 309 307 309 311 311 310 310 310 309 309 309 307 307 308 309 311 312 313 314 314 315 316 316 317 318 319 320 320 321 321 321 322 323 324 322 321 322 323 323 322 321 321 321 321 320 319 318 317 316 315 314 314 313 313 313 313 314 313 314 313 313 312 311 310 309 308 307 305
311 312 312 312 313 312 313 312 311 313 311 307 304 306 309 310 311 311 311 311 309 308 310 312 313 312 313 316 314 311 310 312 313 313 312 311 312 313 312 311 309 309 311 311 312 313 314 314 315 316 316 316 317 318 320 320 320 321 322 321 322 322 322 322 322 323 323 323 323 322 321 320 320 319 318 317 316 315 314 313 312 312 312 311 311 312 312 312 312 312 311 311 309 308 307 306 304
311 313 312 312 313 313 315 313 311 312 310 306 304 307 310 310 311 312 312 311 310 308 308 310 310 310 312 313 312 313 314 315 316 317 316 314 313 314 313 312 311 311 311 312 312 313 314 314 315 316 316 316 318 319 320 320 320 321 321 321 321 320 321 322 323 323 323 323 322 321 321 320 319 318 317 316 315 314 313 312 311 311 311 310 309 309 308 308 310 311 311 310 310 308 306 305 304
312 315 313 312 313 313 314 313 312 313 310 306 305 308 311 310 310 312 311 309 308 307 307 307 307 308 308 308 309 314 316 315 319 321 319 316 313 312 311 311 311 312 312 312 313 313 314 314 315 316 316 316 318 319 320 320 321 321 320 319 319 319 320 323 323 323 322 322 321 321 320 319 318 317 316 315 314 313 312 311 311 310 310 309 308 307 306 306 308 309 310 309 309 308 306 306 305
311 312 311 312 314 313 310 309 310 310 310 309 307 309 312 311 311 312 311 308 307 307 306 307 308 307 307 309 313 317 316 316 321 324 322 317 312 309 309 310 310 311 312 313 313 314 314 315 315 316 316 317 318 319 320 320 320 320 318 318 318 318 320 322 322 321 321 321 320 319 319 318 317 316 315 314 313 312 311 311 310 310 309 308 307 307 307 307 308 309 309 309 309 308 306 306 306
310 310 310 310 313 315 310 306 305 306 309 311 310 311 311 310 311 313 313 311 309 309 308 308 310 309 309 314 320 320 320 321 323 323 321 316 312 309 308 309 310 310 312 313 313 314 315 315 316 316 317 317 318 319 319 320 320 319 318 318 319 319 319 320 320 320 320 319 319 318 317 316 316 315 314 313 313 312 311 310 310 309 309 308 307 307 306 307 308 309 309 308 308 307 306 306 305
310 311 312 309 311 313 311 309 308 307 310 311 309 310 310 308 310 314 313 311 311 310 309 309 311 311 313 318 323 322 322 322 321 320 318 314 311 310 309 308 310 311 312 312 313 314 314 315 315 316 316 317 317 318 318 318 319 319 318 318 319 319 318 318 319 318 318 317 317 316 315 314 314 314 313 313 312 311 311 310 310 309 309 308 307 307 306 305 306 308 308 308 308 306 305 305 304
311 312 312 312 312 312 309 310 312 310 310 311 309 307 308 308 310 314 312 311 313 311 311 311 311 312 315 319 321 320 319 320 319 319 318 314 311 310 309 308 308 310 311 312 312 313 313 314 315 315 316 316 316 316 317 317 317 317 317 317 317 317 317 317 317 317 316 315 315 314 314 313 313 313 313 312 312 311 311 310 310 309 309 308 307 307 306 305 305 306 307 308 307 307 306 305 305
309 309 309 311 313 311 310 310 311 311 310 311 310 307 308 310 311 312 311 312 314 312 312 313 311 312 313 315 318 319 319 320 317 314 315 314 310 308 308 308 308 309 310 311 312 312 313 313 314 314 314 315 315 315 316 316 316 316 316 316 316 315 315 315 315 315 315 314 314 314 313 313 312 312 312 312 311 311 310 310 310 309 308 308 307 307 306 306 305 305 306 307 307 307 306 306 305
309 308 309 311 310 309 310 309 308 310 310 310 310 308 308 312 311 311 311 311 313 313 313 313 313 312 311 312 317 320 320 319 315 312 313 311 309 307 306 307 308 309 310 310 311 312 312 313 313 313 314 314 314 314 314 314 314 314 314 314 314 314 314 314 313 313 313 313 313 312 312 312 312 311 311 311 311 310 310 310 309 309 308 308 307 307 306 306 305 305 306 306 306 306 306 306 305
312 309 310 312 311 310 312 311 308 308 308 308 309 308 310 313 312 311 311 311 310 310 311 312 312 311 310 312 315 317 319 317 313 313 313 311 310 308 306 308 308 308 308 309 311 311 311 312 312 312 313 312 313 313 313 313 313 313 313 312 313 312 312 312 312 312 312 312 312 312 312 312 311 310 309 310 310 309 309 309 309 308 308 307 307 307 306 306 305 305 306 306 306 305 305 305 305
Wind_Speed
3 1 2 3 1 1 1 1 1 1 1 2 2 2 4 1 2 5 7 6 5 5 2 3 9 7 2 1 2 4 4 1 3 2 2 4 10 17 12 13 17 17 15 13 14 14 12 11 10 10 10 10 11 12 13 14 14 14 14 14 14 14 13 11 11 13 15 16 18 18 17 17 17 16 17 17 17 17 16 16 17 18 17 18 19 19 19 19 19 19 19 19 18 18 18 18 18
2 1 3 3 1 2 1 1 2 2 2 3 3 0 4 3 3 7 10 6 4 6 4 6 9 4 2 2 1 2 3 5 6 3 4 6 14 14 12 16 17 16 15 13 15 14 12 11 10 10 9 10 10 12 13 14 14 13 13 15 14 14 13 12 11 11 12 16 17 17 17 16 16 16 16 16 16 16 15 15 16 17 16 17 18 19 19 20 19 19 19 19 19 19 19 19 19
1 2 3 3 2 1 1 1 3 3 3 3 4 2 4 6 6 7 8 4 6 8 7 7 7 3 0 3 2 1 2 3 3 4 5 11 13 12 14 17 16 16 14 14 15 13 12 11 10 10 9 10 9 11 12 14 14 14 14 14 13 12 13 11 10 9 12 17 17 17 17 15 15 15 15 16 16 15 15 15 15 17 17 17 18 19 18 18 19 19 18 18 18 19 19 19 19
1 3 3 3 1 1 2 2 1 3 3 2 3 5 6 6 7 7 7 6 7 7 7 8 6 1 3 1 2 1 3 4 4 6 8 11 11 14 17 17 16 15 14 14 15 13 12 12 11 10 9 9 9 10 11 13 13 13 14 14 13 12 12 11 10 10 13 18 17 16 17 16 15 15 15 15 15 15 15 16 16 17 17 17 17 18 17 17 18 18 17 17 18 18 18 18 18
0 2 3 2 2 1 1 1 0 3 1 2 2 6 8 5 8 9 7 7 7 4 5 8 4 2 2 1 2 1 4 5 6 7 10 11 10 15 17 17 17 14 13 13 14 13 12 13 12 10 9 9 8 9 10 12 13 13 15 15 14 13 12 11 10 10 13 18 17 15 16 17 16 15 14 14 15 15 15 15 15 16 16 17 16 16 16 16 17 17 17 17 17 17 17 18 18
3 4 3 2 1 0 1 2 2 2 1 1 1 5 8 6 8 11 9 7 4 1 2 6 2 2 2 2 1 1 3 4 7 9 11 12 12 15 16 17 16 14 13 12 13 12 12 14 12 10 9 9 8 8 9 11 12 13 15 16 14 13 12 11 10 9 11 17 17 15 15 16 15 15 14 14 15 14 14 14 15 15 16 16 15 15 15 15 16 16 16 16 17 17 17 17 18
2 3 4 3 2 1 3 2 2 2 2 2 3 4 8 8 9 12 11 7 4 1 2 3 1 3 2 2 2 2 2 2 7 9 10 12 14 15 16 16 15 14 13 12 12 12 12 13 13 11 9 8 8 7 8 9 11 12 14 15 14 12 11 12 10 8 9 14 17 16 14 15 15 15 15 14 14 13 12 14 14 15 16 15 15 15 15 15 15 15 15 16 16 16 17 17 17
2 0 0 1 2 1 2 1 1 1 1 1 2 1 5 9 10 12 11 6 4 4 4 4 3 4 2 1 1 4 2 1 6 10 11 13 16 15 16 16 15 14 13 12 12 12 13 13 13 11 9 8 8 7 7 8 10 11 12 13 12 10 11 13 11 8 9 12 16 16 15 15 15 15 15 14 14 13 12 12 13 14 15 14 14 15 14 14 14 15 15 15 16 16 16 16 16
1 2 1 1 1 1 1 1 1 0 1 1 1 0 2 7 8 10 11 5 3 5 5 5 4 3 4 3 2 4 4 4 6 11 14 14 16 16 15 15 15 15 13 13 12 13 13 13 13 11 10 8 8 8 7 8 9 10 11 11 11 11 12 13 11 8 9 11 13 15 14 15 15 14 14 14 13 13 12 13 13 14 14 14 14 14 14 14 14 14 14 14 15 15 15 15 17
1 2 1 1 2 2 2 2 1 1 2 1 1 2 4 7 6 7 10 6 4 5 5 3 2 2 4 5 3 3 5 8 8 12 15 14 16 15 15 15 15 15 14 13 13 13 13 13 13 12 10 9 8 8 7 7 8 9 10 11 10 12 13 13 12 9 9 10 11 12 14 14 14 14 14 13 13 12 11 12 13 13 13 14 14 13 13 13 13 13 13 13 14 14 14 17 18
2 1 0 2 3 3 2 2 2 2 2 0 1 3 5 7 6 5 6 5 3 4 6 3 3 4 4 3 2 3 7 11 9 14 16 15 16 14 14 14 14 15 14 14 13 12 12 13 13 12 11 9 8 8 7 7 7 9 10 10 10 11 11 13 13 10 8 9 10 11 13 12 13 13 13 13 13 12 10 11 12 12 12 13 13 12 13 12 12 13 13 13 13 13 15 17 18
2 2 2 3 3 1 1 1 3 2 2 2 4 4 5 6 7 8 6 6 5 4 7 6 2 4 5 3 3 5 8 11 10 16 16 15 16 14 14 13 14 14 14 14 13 12 12 12 12 12 12 10 9 7 7 7 7 8 9 9 10 10 10 12 13 12 9 8 9 10 10 10 10 10 11 12 13 12 11 10 10 11 11 12 12 12 12 12 12 12 13 14 13 14 15 17 18
1 2 3 3 0 0 2 1 2 2 3 4 5 5 6 8 7 8 7 6 7 7 6 6 2 2 3 3 3 5 9 11 13 15 16 16 15 13 13 12 14 13 13 14 14 13 12 12 12 11 12 11 9 8 7 7 6 6 7 8 9 9 9 10 10 10 10 9 9 8 8 8 8 9 10 12 13 12 11 10 9 10 10 11 11 11 11 11 12 12 13 13 13 14 15 17 18
1 1 2 2 0 1 2 1 2 3 3 5 5 6 7 6 2 3 6 7 8 5 2 3 2 2 2 3 3 5 9 13 15 14 15 16 14 13 13 12 14 13 13 13 13 14 12 12 13 12 11 11 9 8 7 7 6 6 6 7 8 8 7 8 8 8 8 8 8 7 6 6 6 7 9 12 12 12 11 10 9 10 10 9 10 11 11 11 12 12 12 13 13 14 16 18 17
1 1 1 3 2 1 2 0 2 3 3 7 6 7 8 2 1 3 5 5 5 2 2 2 2 2 1 4 4 6 12 16 15 14 15 16 14 14 12 12 13 12 13 12 13 13 12 12 13 13 12 11 10 9 8 8 7 6 6 6 6 7 6 6 6 6 6 6 6 6 5 4 4 5 9 12 12 12 11 10 9 9 9 9 9 10 11 11 11 11 12 12 13 14 16 18 17
0 1 1 3 2 2 3 1 2 3 3 7 5 6 9 4 1 4 1 2 3 3 1 3 2 2 2 0 3 6 14 18 15 15 15 16 15 13 12 12 12 12 13 12 12 12 12 13 13 13 13 12 11 10 9 9 8 7 7 6 6 6 5 5 5 5 5 5 5 5 4 3 3 5 9 12 12 12 11 9 8 8 8 8 9 10 11 10 10 10 10 11 13 14 16 18 16
1 2 1 2 2 2 4 5 4 2 4 7 5 8 11 7 2 2 1 2 2 4 3 1 1 1 3 3 4 6 13 16 16 17 17 17 16 14 12 12 12 12 13 13 12 12 12 13 13 13 14 13 12 11 10 9 9 8 8 7 7 6 5 5 4 4 4 5 5 4 4 4 5 7 9 12 12 12 11 9 9 9 8 8 8 9 9 9 9 9 10 11 13 14 17 17 16
2 2 2 3 2 2 4 7 4 1 6 9 9 11 12 9 6 3 4 4 2 4 4 1 1 2 2 3 3 6 12 16 18 19 19 18 18 17 14 13 13 13 14 14 13 12 12 13 14 13 13 14 13 12 12 11 10 9 9 8 8 7 6 5 4 3 3 4 4 5 5 6 7 8 10 13 12 11 11 9 10 10 9 8 8 8 9 9 10 10 11 12 13 15 17 16 15
1 1 2 3 3 2 1 6 5 0 6 11 10 9 8 8 9 5 6 6 4 5 6 3 4 6 5 2 3 8 12 17 20 21 21 20 20 19 16 15 14 14 15 15 14 13 13 13 14 14 13 14 13 13 12 11 11 10 9 9 9 8 7 6 5 4 3 4 4 5 6 6 8 9 12 15 13 12 12 10 10 10 9 9 9 10 10 10 10 11 11 11 13 16 14 13 14
0 2 4 3 3 2 0 3 4 0 3 12 11 6 4 4 7 5 5 6 6 8 7 6 7 9 9 6 6 11 14 18 20 21 22 22 21 20 19 18 17 16 16 16 15 14 14 14 14 14 14 14 14 13 12 11 12 13 11 9 9 9 8 7 6 5 4 4 4 5 5 5 7 10 13 15 13 11 11 11 11 10 10 10 9 9 9 9 9 10 10 12 15 16 13 12 13
1 2 2 3 2 2 2 2 3 1 1 9 11 7 6 4 4 5 6 6 6 9 9 9 10 11 11 9 10 15 17 19 21 22 22 22 22 21 20 19 18 17 17 17 17 16 16 15 14 14 14 14 15 14 13 13 14 14 11 9 9 8 8 9 8 6 6 4 4 5 5 5 7 11 14 15 13 9 10 11 9 9 9 10 9 6 7 7 7 9 11 13 15 15 15 15 15
2 0 3 2 1 1 3 1 2 2 1 7 11 9 7 6 4 6 9 9 5 4 5 8 7 6 10 11 13 17 19 20 22 23 23 23 23 22 20 19 19 18 17 18 19 19 17 16 15 15 15 15 16 14 14 14 15 16 15 12 11 9 8 10 9 7 7 6 6 5 5 6 7 10 13 15 14 10 9 9 9 8 8 9 9 6 7 6 6 8 11 14 15 16 16 16 17
2 1 1 1 1 1 3 1 2 2 4 9 10 8 8 8 6 4 8 9 1 4 2 2 1 3 9 12 14 17 19 20 22 24 25 25 25 24 22 20 20 19 19 20 20 20 20 17 16 15 15 16 16 15 14 15 16 17 18 16 14 12 11 12 11 9 9 7 6 6 6 7 7 10 13 15 15 12 10 9 9 8 8 9 8 7 9 8 9 11 13 14 15 15 15 16 17
2 2 3 1 2 2 1 1 2 2 4 5 6 7 8 9 6 3 8 9 4 5 4 3 2 6 10 12 13 16 18 21 22 23 22 22 23 23 21 20 20 19 19 20 20 20 22 21 18 17 16 16 17 16 15 15 16 16 18 18 15 14 13 13 13 12 11 9 8 7 7 8 8 10 12 14 16 15 13 12 11 11 11 12 10 9 10 11 13 14 14 14 14 15 16 17 18
3 2 4 3 2 3 2 2 3 2 1 2 5 7 5 3 2 3 9 7 4 3 4 4 3 6 9 11 13 14 16 18 18 18 19 17 18 19 20 19 18 19 20 20 20 21 22 23 22 21 19 17 16 16 16 17 17 17 19 18 14 13 13 13 14 13 13 11 10 10 9 9 9 10 12 14 15 16 16 15 15 14 13 13 11 10 12 13 13 14 14 15 15 16 17 18 19
1 3 4 4 3 3 3 4 3 2 1 2 7 6 2 1 1 5 7 2 4 3 4 4 3 6 7 9 11 13 14 16 17 17 18 15 15 18 19 19 19 20 20 21 21 21 21 22 24 24 23 20 17 17 17 17 18 18 20 19 15 14 13 13 15 14 14 13 13 13 11 10 9 10 11 13 15 16 16 16 16 16 15 14 12 12 14 14 14 15 15 16 16 17 19 20 21
5 7 6 5 4 3 2 4 3 2 3 3 6 6 2 2 2 6 3 3 2 4 4 2 4 6 7 7 9 11 12 15 17 15 16 16 16 18 19 19 20 19 19 21 22 21 20 21 22 23 24 22 20 20 19 18 18 19 21 21 18 17 15 15 17 15 15 15 14 14 13 12 11 11 12 12 14 15 15 16 17 16 16 15 14 13 15 16 15 16 16 17 17 19 20 21 22
9 10 9 6 4 5 3 6 4 2 3 2 2 6 3 3 3 4 3 3 2 5 5 3 4 6 6 7 7 8 10 12 14 14 17 19 18 19 20 21 21 20 20 21 21 21 21 22 21 21 23 23 23 23 22 21 20 20 22 22 20 20 17 16 18 18 16 15 15 15 15 14 13 12 12 12 13 15 16 17 16 16 16 15 15 15 16 16 16 17 17 17 18 19 21 22 23
7 4 6 5 3 5 3 4 2 2 3 1 2 3 2 6 7 4 4 1 3 5 6 5 5 5 5 6 6 7 9 10 13 15 18 18 18 18 20 21 20 20 19 19 19 20 21 23 24 22 21 22 24 25 23 22 23 23 23 24 26 27 22 18 20 20 17 16 15 16 16 15 14 12 11 12 13 15 16 16 16 16 15 15 15 16 17 17 17 18 18 18 19 20 22 23 23
4 1 2 4 4 4 2 2 1 2 2 1 3 3 5 10 9 5 4 1 4 5 7 6 6 5 5 5 5 7 8 11 14 16 17 16 17 17 18 18 19 19 17 17 19 21 20 22 26 26 24 22 24 25 24 22 22 23 23 23 24 29 28 24 23 22 19 18 16 17 18 17 16 14 13 13 14 16 17 16 16 16 17 17 17 18 19 19 20 20 20 20 21 22 23 24 24
4 4 1 2 4 4 3 2 1 3 2 1 5 4 2 5 5 4 3 2 4 5 7 7 6 6 5 5 6 7 9 12 14 15 16 16 16 15 16 17 18 19 17 16 19 20 20 20 23 26 27 26 25 24 25 23 20 20 22 22 21 24 27 25 24 24 23 21 19 19 20 18 17 17 16 16 15 17 18 18 18 18 20 20 19 20 21 22 23 23 22 23 23 23 23 25 25
2 4 4 2 3 3 3 2 0 1 2 2 5 5 3 2 3 4 2 3 6 7 6 6 6 7 6 6 6 7 8 11 13 14 16 17 17 16 17 17 18 20 19 18 18 19 20 21 22 24 25 27 27 26 26 24 21 22 22 25 25 25 28 27 25 26 27 26 23 22 22 20 19 18 17 18 18 19 20 20 20 22 23 22 22 22 23 24 24 24 24 24 24 24 25 26 26
1 3 4 4 4 3 2 2 1 1 2 4 4 3 2 1 3 4 2 3 5 6 7 7 6 7 7 6 6 6 7 9 11 15 18 18 18 18 18 18 20 21 21 19 18 19 21 21 22 23 23 24 24 24 28 27 25 25 23 24 25 25 28 29 27 29 30 29 26 25 25 23 21 20 18 20 20 20 22 23 24 25 24 25 25 24 25 26 26 26 26 25 25 25 26 27 28
3 1 1 1 3 3 3 3 1 1 2 5 5 4 5 1 3 4 2 2 3 5 7 8 6 5 5 6 6 7 7 8 10 15 19 21 21 20 19 19 20 21 21 21 20 20 20 20 21 23 24 24 22 23 25 26 26 24 21 20 22 23 26 27 29 32 32 29 28 28 27 26 25 24 22 23 23 22 23 25 27 26 26 27 27 27 27 27 28 28 27 27 26 26 27 28 29
8 5 3 2 3 4 3 2 2 1 3 5 5 7 12 7 4 6 5 3 4 6 6 5 6 5 5 5 6 7 8 9 11 13 17 21 23 24 23 23 22 23 23 22 22 21 20 20 20 21 23 23 23 24 23 23 25 24 22 22 23 23 24 26 28 30 30 27 28 29 27 28 29 27 26 26 25 25 26 27 28 28 28 29 29 29 28 29 29 29 29 28 28 27 27 28 29
10 8 5 5 5 3 1 1 2 1 4 7 9 9 12 10 9 9 5 4 4 7 6 6 6 5 5 6 6 7 9 10 10 11 14 18 23 26 27 28 28 28 26 24 23 22 21 21 21 21 22 21 21 23 23 22 23 25 26 28 28 25 23 24 25 24 25 27 28 26 25 27 30 29 28 28 27 28 30 31 31 31 30 31 31 30 31 31 31 30 30 29 29 29 27 27 28
6 4 2 2 4 3 1 2 3 2 4 7 8 8 11 12 11 10 4 3 5 8 8 8 7 7 6 7 8 8 10 9 7 10 15 18 21 23 25 26 27 28 28 27 26 25 25 23 22 23 22 20 21 23 25 26 25 25 26 30 32 28 24 26 26 24 24 26 29 27 23 26 30 29 28 29 29 29 30 32 33 31 31 32 33 33 34 33 31 31 31 31 31 30 29 28 29
3 4 3 2 3 1 2 1 2 2 3 3 1 6 13 14 12 10 6 6 10 11 10 11 10 8 7 7 9 9 8 6 5 9 12 15 19 21 22 24 25 26 28 30 30 30 28 25 24 22 20 20 22 23 24 27 29 26 23 26 29 27 25 27 27 26 25 25 25 25 23 25 28 28 29 30 29 28 29 31 32 31 31 32 33 34 34 32 32 32 33 32 31 30 30 29 30
3 3 4 3 2 2 2 1 2 1 3 1 2 5 11 13 12 11 10 10 11 10 10 11 9 8 8 8 8 8 7 6 6 8 9 12 16 18 20 23 25 27 27 29 31 30 28 27 26 23 19 19 21 22 23 24 25 25 22 21 21 21 21 22 23 22 23 26 26 23 22 23 24 25 27 28 27 27 28 29 31 32 32 32 33 34 34 33 34 35 35 35 31 29 28 29 31
3 3 4 4 3 3 2 3 3 1 1 1 1 4 9 9 9 11 10 8 7 7 9 9 7 9 8 6 5 6 8 8 7 8 9 10 12 15 19 23 25 27 26 27 30 30 29 29 29 26 23 20 18 22 25 23 21 23 22 21 20 20 21 21 22 21 21 24 27 26 23 23 24 25 26 26 27 29 30 30 32 33 32 32 32 34 35 36 37 36 36 35 32 30 29 29 32
2 3 5 3 4 4 1 4 5 1 1 1 2 5 8 6 8 10 5 2 5 5 6 9 9 9 8 6 6 7 8 7 6 8 8 8 9 12 17 22 25 26 28 29 31 32 32 31 31 28 25 21 17 20 24 23 23 25 25 24 22 21 23 23 23 25 24 24 26 27 26 26 26 27 27 27 27 29 30 30 31 32 32 31 32 34 36 37 37 36 36 36 36 35 33 32 32
3 5 5 2 6 6 4 6 6 2 3 1 1 5 5 1 5 9 2 0 6 4 4 10 9 7 7 7 9 8 8 8 8 9 7 7 8 9 13 19 23 25 28 30 30 31 32 31 30 28 25 21 17 18 20 22 27 29 28 27 26 24 24 25 26 27 27 27 28 28 27 28 29 28 28 27 26 25 26 27 29 30 30 30 32 33 36 38 37 36 37 38 40 40 38 34 32
4 3 4 3 5 7 8 8 5 2 2 1 1 5 4 1 3 3 1 3 7 4 6 11 8 6 6 7 7 6 6 7 7 8 8 8 9 10 12 16 21 24 26 28 28 28 28 28 28 27 26 21 16 17 19 24 29 30 30 30 29 27 25 25 27 27 26 26 27 26 26 29 31 29 29 29 27 26 24 25 26 28 29 30 31 33 36 37 37 37 38 40 41 42 39 35 34
2 1 3 7 8 8 9 8 4 1 1 1 1 2 4 5 3 2 1 4 7 6 9 11 8 6 5 6 5 5 6 5 5 6 7 8 9 10 11 12 17 20 22 24 25 26 26 26 26 25 24 19 15 18 20 26 29 27 29 29 27 26 24 21 21 22 22 21 20 22 24 27 29 29 30 30 30 29 27 27 26 25 27 29 30 33 35 35 37 37 38 40 40 39 39 38 38
0 1 2 5 5 6 6 6 3 1 1 4 3 1 4 6 2 2 1 4 8 8 10 10 7 4 4 4 3 4 4 4 5 6 6 7 7 8 9 9 13 17 18 20 21 23 23 23 23 23 22 17 15 20 23 26 27 23 24 25 23 24 23 19 17 15 16 16 16 18 20 22 22 24 28 29 29 29 28 28 29 27 27 28 29 30 32 34 36 37 37 40 40 39 41 41 39
3 5 5 6 5 5 3 3 3 2 4 5 3 1 4 5 2 3 1 3 7 8 7 5 2 2 3 2 1 2 2 2 4 5 6 6 6 7 8 9 11 14 15 16 17 19 19 21 21 21 21 17 15 20 25 26 25 22 21 21 21 21 20 18 15 14 16 18 17 15 15 16 15 18 24 26 27 26 23 23 26 27 27 27 29 29 30 32 34 36 37 38 40 41 42 42 39
8 7 7 8 5 3 2 1 1 3 5 3 2 2 3 4 2 4 4 2 3 5 4 1 2 2 2 2 1 1 1 2 2 3 4 5 5 6 6 7 8 11 12 13 14 15 17 18 20 20 19 16 15 20 24 25 24 23 21 20 21 20 19 17 17 19 22 23 21 18 16 19 19 21 24 25 24 22 19 19 22 27 28 28 29 30 30 31 32 35 35 36 39 40 41 42 42
5 4 6 7 3 2 2 1 2 5 5 1 2 2 3 5 3 2 2 3 2 4 3 1 4 4 2 2 2 1 1 2 2 2 2 3 3 4 5 6 7 10 11 13 13 14 16 17 18 19 18 15 17 20 24 25 25 24 23 20 20 19 18 17 20 25 26 26 25 23 23 24 25 25 25 25 24 22 20 18 18 22 26 29 30 31 31 31 32 34 35 36 39 40 41 41 43
2 5 8 6 4 4 4 3 3 5 2 2 1 1 3 7 6 4 7 7 5 5 5 2 2 2 2 2 1 1 2 2 2 2 2 3 3 4 5 6 8 10 12 14 15 14 14 15 17 19 17 17 19 22 24 24 24 26 25 22 19 18 17 18 23 27 27 27 27 26 26 26 26 26 26 26 25 23 22 20 17 17 19 23 27 29 31 32 32 33 35 37 39 40 41 41 42
5 7 8 7 5 5 5 4 1 3 0 2 1 1 3 6 5 7 11 6 2 3 5 3 3 4 4 2 2 3 3 3 2 2 2 3 3 4 5 7 8 10 12 15 15 14 13 14 17 18 17 18 21 23 24 24 23 25 24 21 18 15 17 21 25 27 27 27 27 27 27 26 26 26 26 25 23 22 22 22 21 20 19 20 22 23 27 30 31 32 34 35 37 39 38 39 41
3 1 2 5 5 4 5 3 2 2 2 2 1 2 4 3 0 3 7 3 2 4 4 3 5 6 4 4 4 4 4 2 2 2 3 3 3 5 5 7 9 11 13 15 16 16 15 15 17 18 17 18 21 23 24 24 24 23 20 18 16 16 20 25 27 27 27 28 27 27 27 27 26 26 25 24 22 21 21 22 22 23 23 24 22 20 23 27 28 30 33 34 35 36 36 37 40
1 1 0 3 3 2 2 1 1 1 1 2 3 3 4 2 5 5 4 3 5 6 3 4 6 5 3 4 4 3 3 2 1 2 2 2 3 5 6 8 11 13 14 16 17 17 18 18 18 19 19 19 20 22 23 22 22 21 17 17 18 18 22 26 27 27 27 27 27 27 27 27 26 26 25 24 22 20 21 21 22 23 24 23 20 18 20 25 28 30 32 33 34 34 35 37 40
2 2 3 2 1 3 3 1 1 1 3 3 3 4 4 2 7 6 1 2 4 3 3 5 5 3 2 4 3 2 2 1 1 1 1 1 3 4 7 9 12 14 15 16 16 17 17 18 18 19 19 19 19 19 20 20 21 20 18 20 21 21 22 24 25 26 27 27 27 27 27 27 27 26 26 24 22 21 21 21 22 22 23 22 18 15 18 24 28 30 32 32 32 33 33 36 37
2 3 4 2 1 1 1 1 1 1 4 2 2 5 4 1 3 2 0 5 6 4 3 4 3 2 3 4 3 3 2 1 1 1 1 1 2 4 7 9 11 13 13 14 14 15 15 16 16 17 18 19 18 18 18 19 20 21 20 21 22 22 22 22 23 24 25 25 26 26 26 26 27 26 26 24 22 22 21 22 22 22 23 21 16 15 17 21 27 30 31 32 32 31 32 34 35
0 1 2 2 2 2 2 2 2 3 4 2 2 3 4 4 4 2 1 5 6 4 3 4 5 5 5 4 4 3 3 2 1 1 1 2 4 6 7 8 9 10 11 12 12 13 14 15 15 16 16 17 17 17 18 18 20 21 21 20 20 21 21 21 21 22 23 23 23 24 23 23 24 25 24 23 23 23 22 22 22 22 23 21 16 15 16 19 24 28 29 30 31 31 32 34 34
1 0 1 0 1 2 2 2 1 3 3 2 2 1 3 6 5 3 6 6 5 3 3 4 6 5 5 4 3 3 2 2 2 2 2 2 4 6 8 8 8 9 11 11 12 13 13 14 14 15 16 16 16 17 17 18 19 19 19 20 20 19 19 20 21 22 23 23 22 22 23 24 24 25 25 24 24 24 23 23 23 23 23 22 19 16 15 17 23 26 28 29 30 30 32 34 34
3 4 5 3 0 0 1 1 2 1 3 2 3 3 3 2 3 7 10 5 1 2 2 4 5 4 4 3 3 3 2 2 3 3 3 3 3 5 7 9 10 11 11 12 13 13 13 14 15 15 15 16 16 17 17 18 18 18 19 19 18 19 19 20 21 22 23 23 22 22 24 24 25 25 24 24 24 24 24 24 23 23 24 24 23 20 17 17 21 25 28 29 30 30 32 34 34
1 3 5 5 4 3 3 3 1 1 1 1 2 4 3 1 2 5 6 2 0 1 3 3 3 4 3 2 3 3 2 3 3 2 3 3 4 5 7 8 10 11 12 14 14 15 15 15 15 16 16 17 16 16 17 17 17 18 18 18 18 18 18 19 20 21 22 23 22 23 23 23 24 21 19 22 23 23 24 24 23 24 24 24 24 24 20 18 20 25 27 29 30 30 32 33 33
Wind_Direction
326 273 201 200 179 171 107 1 218 107 270 121 112 160 141 101 66 150 148 147 146 148 140 121 149 140 133 346 63 58 16 24 23 341 86 77 135 146 147 146 151 147 146 149 145 142 140 136 126 119 108 101 96 96 99 96 94 97 101 103 105 102 99 92 81 88 99 99 96 98 98 95 93 93 92 92 93 88 89 91 86 83 86 89 88 88 87 88 88 86 85 85 85 87 87 87 87
316 234 199 186 114 243 160 331 252 140 186 141 144 178 113 143 180 167 155 150 112 120 138 142 148 127 25 2 79 127 69 36 23 39 77 120 138 146 151 148 150 146 149 150 147 145 142 141 132 123 111 104 96 96 99 101 100 98 108 110 106 102 99 98 101 107 107 102 101 102 98 96 94 95 95 92 90 89 89 92 94 90 88 89 88 87 86 88 90 88 87 86 86 88 89 89 90
281 182 184 177 90 340 129 223 249 172 193 143 146 129 130 173 174 151 133 108 86 115 130 133 147 135 209 169 158 235 88 64 83 91 107 140 144 154 154 151 152 148 152 151 150 148 143 146 137 126 116 108 98 95 96 100 102 101 108 107 105 103 98 97 106 116 116 110 107 107 100 97 98 97 95 92 89 90 92 94 97 90 86 87 85 85 86 88 89 88 87 87 88 89 92 93 95
240 181 181 205 177 179 189 213 256 206 197 142 140 147 179 186 151 122 96 95 107 129 137 148 156 104 294 195 100 347 96 95 128 120 136 152 150 153 153 154 153 152 154 153 153 149 146 150 142 132 121 112 104 96 95 98 101 108 110 106 108 104 98 99 94 96 113 116 110 111 105 100 101 98 96 95 91 90 89 89 90 87 85 85 84 86 89 90 90 90 90 90 91 92 94 95 98
147 174 187 257 224 164 188 191 212 229 188 144 128 153 191 178 135 118 106 118 121 133 147 170 170 82 292 9 17 276 105 104 131 138 149 153 147 149 154 155 153 156 156 154 155 149 151 153 145 136 127 119 111 101 98 98 101 109 112 112 111 103 97 99 97 96 111 117 111 111 108 103 101 99 99 98 96 92 89 90 89 86 87 87 87 89 89 90 90 90 91 92 92 94 95 96 98
99 110 92 58 106 10 197 182 188 201 49 11 65 147 181 162 136 125 123 127 118 10 149 185 180 132 181 107 337 358 80 112 137 147 154 154 154 153 154 154 155 160 157 157 157 152 156 155 149 141 133 126 117 107 101 99 101 106 113 115 110 103 101 99 102 106 111 115 114 111 109 105 103 103 101 99 98 94 92 94 91 90 90 91 91 89 88 89 90 91 93 95 94 96 97 98 100
161 122 80 91 110 312 222 189 183 168 62 351 20 134 164 150 139 131 138 146 146 208 186 201 180 173 152 113 188 101 67 92 132 152 156 154 158 157 154 154 157 161 159 160 158 155 160 156 153 148 140 134 123 113 104 102 102 105 114 116 110 107 113 109 105 108 108 116 120 113 108 108 107 107 104 101 100 96 98 101 100 97 95 94 95 94 93 92 92 94 96 97 97 98 99 101 103
237 90 20 186 130 332 220 167 141 124 75 308 338 114 147 148 151 146 152 160 159 166 174 185 209 216 123 116 187 124 152 114 136 156 152 154 161 159 155 157 160 163 162 162 161 159 164 158 156 156 148 140 130 123 113 110 107 109 115 117 115 115 123 117 107 110 105 113 123 116 111 111 110 110 107 105 101 97 100 106 106 98 95 95 96 96 96 95 96 97 98 99 99 100 101 104 108
24 18 216 208 157 138 163 164 140 81 123 170 206 200 138 156 164 155 154 151 137 158 161 159 201 239 132 148 110 121 178 152 148 158 156 160 163 162 158 161 164 165 165 165 163 161 166 162 160 162 157 150 140 134 127 120 114 114 117 119 119 120 124 117 110 116 107 106 118 118 118 119 115 112 110 109 105 101 99 101 100 96 95 95 94 94 94 97 99 100 101 103 103 104 106 110 111
62 12 190 159 182 185 175 173 145 147 142 138 161 153 161 166 173 161 154 141 136 155 134 121 201 234 146 149 114 116 166 161 160 159 160 163 164 164 161 165 168 168 168 167 163 162 170 168 165 164 163 159 148 144 139 130 122 118 118 120 118 120 124 118 112 115 111 106 112 118 124 123 117 113 111 111 108 106 104 102 99 96 96 95 96 96 96 97 100 102 102 107 108 109 113 116 114
182 74 232 178 190 196 186 166 149 140 120 188 160 139 158 166 168 153 141 125 136 151 132 155 197 177 165 143 116 98 147 166 168 162 163 167 168 165 162 167 171 171 170 168 165 166 171 172 171 168 167 165 159 154 147 137 127 121 119 120 118 119 123 123 119 115 112 108 112 117 124 123 118 116 115 117 113 110 110 108 103 101 100 98 99 99 100 100 103 106 106 112 113 115 121 119 119
204 146 217 199 191 187 151 142 146 132 132 183 159 141 154 166 168 161 161 145 156 162 159 192 184 157 169 144 121 114 153 173 169 164 165 167 167 164 164 168 171 172 173 170 168 170 171 173 175 172 171 170 169 164 153 142 130 123 117 120 119 117 120 128 127 122 122 120 118 118 124 125 120 118 119 123 121 116 116 115 113 109 107 105 104 102 105 105 108 110 111 116 115 121 126 124 128
229 172 204 188 50 82 132 137 134 136 170 174 149 140 154 169 179 174 165 146 161 171 172 183 164 197 182 113 110 136 165 172 164 163 165 168 166 164 165 166 170 174 175 173 172 173 173 175 177 177 178 176 174 172 160 146 138 131 120 119 119 117 118 126 133 133 134 136 136 133 133 130 123 118 122 129 126 124 127 129 124 116 113 111 110 108 108 110 113 114 116 118 118 125 129 131 135
228 222 223 152 60 166 147 114 152 189 171 139 128 137 162 177 186 175 165 162 172 169 118 144 180 234 175 134 146 164 167 161 162 160 163 168 164 166 167 165 171 175 177 178 178 176 176 179 178 179 182 178 175 174 167 158 151 143 130 123 120 118 112 116 129 140 145 146 148 153 152 144 130 121 130 136 133 134 138 136 127 119 116 114 117 116 112 115 119 119 120 122 124 128 131 136 140
174 165 69 130 143 167 182 310 162 210 163 139 144 148 166 168 47 182 194 188 164 87 59 148 226 265 187 181 152 155 159 155 160 157 159 166 163 167 168 168 172 177 182 183 184 181 181 182 181 184 182 178 178 175 172 171 164 156 146 136 127 118 109 109 119 136 149 152 154 162 171 170 144 126 138 142 140 143 143 137 128 123 120 115 120 121 120 123 128 128 129 129 130 134 137 142 146
144 154 118 142 157 186 185 185 166 211 152 138 145 160 166 146 147 192 254 292 129 101 209 176 194 308 336 141 74 112 146 153 159 154 157 162 163 168 169 175 176 179 185 186 187 187 188 186 186 188 184 182 181 178 177 177 175 169 160 151 141 128 119 115 115 128 139 148 153 158 164 167 150 129 141 149 150 152 152 148 136 129 129 123 121 124 126 131 137 138 137 140 144 147 148 150 152
246 200 192 156 169 202 173 176 181 161 128 135 151 179 174 152 172 194 15 288 143 144 218 187 149 305 9 62 66 101 139 154 158 153 159 163 166 170 174 181 181 183 187 189 191 190 192 191 191 192 189 187 186 185 180 181 185 179 174 168 157 148 141 134 125 129 134 143 144 146 147 144 145 135 146 157 156 158 161 158 146 141 142 136 131 131 132 136 143 148 150 157 162 158 154 155 156
233 209 189 176 170 178 173 178 178 108 145 158 172 186 183 163 161 156 168 193 122 151 202 235 211 203 85 75 105 137 149 160 161 160 164 168 173 175 178 186 187 187 189 191 195 194 194 195 195 195 192 190 190 189 186 188 190 183 181 175 171 167 159 153 147 144 140 146 143 141 141 139 143 141 156 162 158 161 164 163 157 156 156 149 146 143 141 145 151 161 167 171 169 159 156 158 158
227 183 198 197 171 135 168 170 159 156 146 152 169 192 194 170 157 161 191 180 153 186 198 216 223 190 167 136 146 158 162 167 168 170 172 176 180 180 182 188 190 190 192 193 195 197 198 198 199 197 196 194 193 192 192 193 189 185 185 177 177 177 173 172 165 163 159 159 152 145 144 146 148 152 166 171 169 169 169 170 170 171 171 168 167 162 159 162 167 171 168 165 160 156 156 159 159
229 216 213 171 148 120 5 180 154 38 132 148 160 183 201 163 148 165 197 177 179 208 198 196 215 203 179 151 156 167 169 173 176 178 181 184 186 187 188 190 192 192 195 196 196 198 200 201 201 199 199 198 196 195 195 195 193 193 190 182 181 179 180 183 179 178 177 176 165 157 159 154 152 161 171 175 174 173 176 181 183 186 186 188 189 181 179 176 169 161 152 151 156 161 165 164 161
173 226 243 111 134 144 148 191 134 73 200 153 143 153 181 148 147 179 180 176 202 220 212 205 208 201 177 148 160 171 172 178 182 186 188 190 191 193 194 195 195 195 197 199 200 202 202 204 203 202 202 201 201 199 198 199 200 199 193 184 183 182 183 188 191 189 187 189 185 178 178 163 155 167 174 176 173 168 176 182 185 189 191 198 201 203 199 178 156 149 151 157 163 171 176 173 169
171 238 349 66 172 138 121 154 124 102 125 143 141 156 160 134 166 192 190 199 209 219 220 219 216 192 165 151 159 170 177 183 186 192 194 195 196 196 197 198 198 198 200 200 203 206 207 207 204 203 203 204 205 203 203 204 204 206 205 199 192 188 189 195 197 200 201 195 199 201 191 177 168 174 180 184 182 174 178 181 183 184 189 200 201 216 220 179 156 161 164 170 176 181 184 182 178
215 162 38 59 344 73 108 111 151 167 161 157 154 149 136 152 185 185 208 218 114 48 353 294 303 107 135 143 156 171 182 187 190 195 197 197 198 198 198 198 198 200 202 203 204 207 210 210 207 207 205 205 208 207 207 209 210 212 214 212 205 198 198 204 203 206 213 207 208 209 198 192 184 184 187 193 192 185 184 187 189 189 193 205 203 215 221 184 164 174 177 182 187 188 190 188 185
270 155 131 128 6 36 65 82 157 209 187 156 136 138 152 182 181 135 222 221 110 62 24 24 77 122 135 147 165 179 186 191 194 197 199 201 200 200 199 199 201 203 204 204 205 208 211 212 212 211 209 207 207 208 210 212 212 213 216 216 213 210 206 213 213 210 216 216 217 217 209 202 195 195 194 197 200 197 199 200 202 204 206 214 216 218 214 187 174 181 186 189 191 191 191 188 185
256 155 137 145 44 59 67 102 151 186 183 114 137 152 160 183 144 161 225 215 135 94 65 70 110 136 154 164 174 182 188 194 196 199 203 206 205 203 202 202 204 206 207 204 204 208 211 213 216 217 217 214 209 210 212 214 214 212 217 217 214 217 213 216 220 218 221 223 223 224 222 213 204 206 204 203 205 206 210 211 211 213 216 218 221 222 209 191 184 188 191 192 192 191 190 188 184
168 120 126 134 102 89 103 116 135 138 109 176 166 145 97 82 338 238 222 166 115 122 97 93 136 160 175 174 178 183 189 195 195 199 204 207 207 205 205 205 207 209 209 206 205 208 210 211 214 217 219 217 213 213 214 215 216 214 218 219 216 221 219 222 225 222 225 226 226 227 226 223 217 216 216 213 211 213 215 216 218 220 223 223 223 222 206 196 193 194 195 195 195 193 191 190 186
105 112 103 101 106 96 109 122 124 125 107 250 181 131 90 115 265 242 180 74 102 159 146 134 180 187 189 182 183 187 192 196 195 197 201 204 208 208 207 207 210 211 208 208 207 207 209 209 209 213 219 219 215 217 220 219 220 219 220 220 221 225 222 225 229 225 227 229 229 230 228 226 224 226 230 225 219 220 219 218 222 224 227 227 225 220 207 201 201 200 201 200 199 198 195 193 189
121 129 104 81 103 101 82 118 128 163 127 281 181 117 84 113 230 227 108 54 171 183 174 172 208 200 192 190 186 191 199 199 195 198 201 204 205 207 208 207 208 209 209 209 208 207 207 208 209 212 218 220 218 219 223 225 225 225 224 222 225 229 220 217 225 224 227 229 230 233 234 231 226 226 232 233 230 228 224 223 225 227 229 229 226 220 211 208 208 207 208 206 204 203 200 198 196
129 150 118 110 135 111 79 112 135 262 142 239 191 135 184 200 219 180 90 15 151 185 195 186 215 209 192 194 192 200 202 195 196 205 208 206 206 207 209 208 206 207 210 210 207 208 209 211 212 211 212 217 220 220 222 225 227 227 230 228 226 227 220 214 223 222 223 227 229 232 236 239 234 229 231 233 237 235 231 230 230 233 233 233 229 221 215 213 213 213 212 210 209 206 204 202 201
140 188 139 142 181 148 99 90 186 228 125 254 230 214 211 208 216 149 107 239 147 186 207 196 207 205 200 198 203 210 204 200 204 210 211 209 210 211 212 209 206 207 209 209 209 209 210 214 215 215 216 216 218 220 220 223 226 227 229 227 225 225 221 224 230 222 220 226 228 229 231 235 236 233 233 234 238 238 235 234 235 236 234 233 229 221 217 215 216 216 213 210 209 206 205 203 202
138 150 195 170 200 166 107 72 218 186 139 265 231 238 229 190 198 143 129 197 181 209 209 199 201 200 209 202 211 220 211 212 214 215 214 213 215 214 214 211 207 207 207 208 209 209 208 212 215 216 219 220 220 221 220 221 224 224 226 229 230 229 225 229 233 224 224 229 226 226 226 229 231 229 231 230 233 238 237 237 237 235 235 233 228 221 217 216 217 217 214 211 207 203 203 203 203
116 168 184 185 218 174 114 102 323 183 144 212 227 239 245 180 153 130 129 183 199 228 218 206 205 204 212 208 218 226 222 223 224 224 221 219 220 218 216 213 208 208 208 209 209 209 209 212 215 215 217 219 223 225 221 220 225 228 230 233 233 234 231 230 231 228 230 231 226 227 226 226 228 228 231 229 229 236 237 236 236 235 236 233 228 223 219 219 219 218 217 213 209 207 206 206 205
189 224 176 168 204 184 148 136 26 351 147 201 234 266 261 141 121 129 123 170 188 228 232 225 220 210 212 213 219 226 230 228 226 228 225 221 222 220 218 215 212 210 210 210 207 208 210 213 215 215 214 214 217 221 220 220 227 229 228 228 229 233 230 228 232 233 232 230 230 234 232 229 229 227 230 229 229 235 236 236 236 236 237 235 231 226 222 222 222 220 219 216 214 214 213 209 208
166 265 114 150 211 187 180 154 111 330 215 211 216 254 252 183 108 157 167 172 194 231 236 231 230 221 214 214 220 226 230 230 228 227 223 221 222 220 218 217 215 213 214 213 210 209 210 211 214 216 216 215 215 217 220 221 222 221 219 223 231 236 232 233 238 237 234 233 234 237 236 232 229 226 226 228 229 235 239 239 239 240 241 239 234 230 226 225 225 223 222 220 219 219 216 213 213
165 178 176 174 225 226 214 163 123 185 219 222 203 236 250 239 207 203 181 165 234 251 250 247 241 233 223 219 225 226 229 234 232 225 219 222 226 227 225 224 222 219 218 216 212 212 211 212 215 217 218 216 217 218 219 221 219 219 222 230 238 240 240 241 238 232 231 233 234 235 238 236 231 229 228 228 231 237 241 241 242 242 242 241 237 232 229 228 227 225 225 226 225 223 220 218 217
175 181 190 177 185 218 225 75 22 253 206 219 216 229 252 248 234 227 190 151 234 258 261 259 246 236 230 223 229 227 231 238 231 223 225 228 232 234 233 232 231 229 225 221 215 212 212 213 214 218 218 215 217 218 217 219 221 223 227 230 231 231 235 235 229 226 229 236 238 237 241 239 233 233 235 234 237 242 244 243 241 240 241 241 238 235 233 232 232 229 227 227 226 223 221 219 218
176 165 191 183 181 178 140 90 24 329 226 221 227 246 262 260 250 246 219 174 244 254 250 250 241 234 229 220 226 226 230 239 235 236 238 235 235 236 235 233 232 231 230 225 220 217 215 212 212 216 216 213 215 217 217 217 217 218 220 221 221 222 226 230 232 235 237 241 241 237 239 239 235 236 237 237 242 247 248 245 242 241 243 243 240 238 235 234 235 231 227 226 225 222 219 219 217
171 185 182 188 216 167 90 86 58 17 245 221 260 267 259 259 262 260 241 231 250 247 244 249 238 229 228 223 228 226 229 238 234 239 238 232 232 231 229 228 226 226 227 226 224 223 219 213 213 215 214 213 214 214 214 217 216 214 215 216 218 219 222 228 235 238 238 238 236 234 238 242 241 239 237 237 244 251 252 248 243 243 245 245 243 240 236 234 235 232 227 225 223 221 221 221 215
159 187 182 186 198 136 107 120 79 59 244 246 37 270 262 261 265 264 248 240 247 241 241 251 245 233 226 221 225 224 227 226 216 226 228 224 227 225 224 224 225 225 226 226 225 223 218 214 214 214 213 214 215 214 212 215 217 216 217 218 219 220 223 229 233 235 237 236 235 236 240 243 243 242 241 242 248 254 252 249 244 243 245 246 243 239 234 233 234 232 229 227 222 218 220 223 218
167 167 185 189 164 177 206 167 128 52 284 320 345 282 276 263 257 257 244 236 251 250 247 253 252 243 235 231 235 227 229 228 215 223 229 220 218 221 223 223 225 224 222 223 224 220 217 217 216 214 213 214 215 216 215 215 217 218 220 222 222 222 226 231 231 233 235 236 237 238 240 241 243 246 247 249 253 255 251 247 243 241 245 247 244 238 234 233 234 233 230 227 221 216 217 223 222
211 206 200 181 168 198 330 121 134 111 198 243 306 283 276 248 240 248 225 182 255 250 247 248 240 236 241 259 259 239 234 238 232 232 231 220 213 218 224 226 226 224 222 224 223 221 220 220 219 216 214 214 214 216 215 213 214 216 217 219 221 221 225 228 230 232 233 235 237 238 238 241 243 245 247 251 255 253 248 244 242 243 247 248 245 240 237 238 238 235 231 227 224 223 222 223 222
215 222 212 195 176 165 100 128 147 186 206 179 326 261 261 189 229 245 225 305 249 223 232 245 234 214 220 241 246 236 234 241 244 245 245 236 230 225 228 231 229 227 227 226 225 223 222 221 220 217 213 214 215 214 210 207 211 214 213 212 213 214 218 224 227 229 230 233 237 238 238 239 241 242 246 250 251 249 246 245 246 248 251 251 247 243 241 239 238 237 235 231 229 229 226 222 221
208 216 192 152 149 141 136 158 172 215 210 78 327 246 254 257 226 225 15 294 260 238 238 247 237 206 205 226 237 232 231 235 237 246 251 246 240 233 232 233 231 231 230 229 228 226 224 222 220 218 215 216 215 209 206 207 210 213 214 213 213 214 217 223 227 229 230 233 237 238 237 239 241 243 247 249 248 247 249 250 250 252 253 252 249 243 239 238 239 240 240 235 233 231 226 221 222
193 155 162 146 146 153 159 170 188 251 103 110 237 258 267 265 242 119 31 287 265 246 239 243 236 214 212 222 229 230 231 232 233 240 242 239 237 234 236 236 233 233 232 231 229 227 223 220 220 217 214 214 212 208 207 210 211 210 213 215 216 219 221 225 229 229 230 231 233 234 235 240 244 245 245 246 246 247 249 250 252 253 252 251 248 242 240 241 242 241 239 236 232 229 226 225 226
205 85 144 137 136 146 158 169 168 61 243 204 178 164 251 253 234 115 16 271 257 245 234 235 226 203 214 218 213 228 235 235 238 244 246 243 242 238 240 242 236 232 231 229 225 223 221 217 217 215 211 211 211 211 212 213 212 209 211 214 216 221 224 227 228 225 224 223 226 231 234 238 242 243 243 243 244 246 248 249 251 252 251 249 248 246 245 245 243 241 238 235 233 231 231 230 229
141 136 106 92 87 87 121 168 142 128 238 221 158 122 254 252 213 168 179 248 246 241 226 221 212 198 223 229 230 239 241 237 235 245 255 254 251 244 241 240 233 227 224 224 220 218 216 213 212 210 208 207 206 211 214 213 210 209 210 212 214 219 221 223 222 219 223 226 228 228 229 231 232 238 243 244 245 245 246 248 248 249 249 249 250 249 249 247 244 243 241 239 239 237 235 233 230
140 145 112 100 95 81 98 96 125 190 231 219 90 17 277 266 230 191 204 234 245 245 238 182 155 191 197 204 247 264 261 264 250 254 258 253 248 240 231 223 214 211 208 207 208 207 206 205 205 204 204 203 203 209 212 211 209 209 211 213 215 218 219 219 219 222 228 231 229 227 230 235 236 240 246 247 247 246 244 244 246 247 247 248 250 251 251 248 245 245 243 243 244 241 238 237 234
148 158 136 119 110 132 149 126 189 219 225 128 49 343 250 242 237 188 236 300 286 253 260 174 150 161 168 185 222 259 275 276 275 262 237 221 221 209 198 190 186 189 188 188 192 193 195 196 197 199 199 200 204 207 209 210 210 211 214 216 218 220 221 222 226 228 231 232 232 232 235 240 242 244 247 248 249 248 245 242 243 245 246 247 249 251 252 250 247 245 244 243 242 240 238 237 235
216 168 162 156 148 165 188 183 199 228 228 72 33 300 235 245 255 262 272 276 253 233 243 224 163 191 224 209 227 270 270 265 261 247 213 201 200 187 182 177 174 176 176 181 185 183 186 191 192 195 197 200 205 207 209 209 211 215 218 218 221 223 223 227 232 234 235 236 236 238 240 242 244 246 248 250 252 252 250 245 239 239 242 245 248 251 251 250 246 244 243 242 240 238 237 235 235
199 174 175 178 159 170 193 176 223 255 224 59 325 262 250 259 261 252 255 264 258 231 242 247 255 266 271 298 306 294 286 259 244 235 220 207 193 185 182 176 175 177 177 180 183 181 184 187 190 194 197 202 205 208 209 209 212 217 219 220 222 223 225 231 236 238 239 241 241 242 245 246 248 250 253 255 256 256 253 250 247 247 248 251 254 254 252 251 247 243 243 243 242 240 238 236 236
193 180 183 189 172 185 199 181 209 223 107 85 155 225 229 223 57 255 253 282 314 253 251 266 265 261 274 296 287 279 276 251 225 231 225 206 186 182 181 181 181 181 180 183 183 184 185 186 189 192 195 200 204 207 209 210 214 218 218 221 222 224 232 237 239 240 242 244 246 248 250 251 251 254 257 259 259 257 254 253 252 252 254 258 262 259 254 252 248 244 243 244 244 242 239 239 240
183 7 338 211 180 144 143 90 149 122 67 152 180 245 248 264 309 287 253 263 264 252 248 256 257 248 250 273 268 255 258 234 206 235 225 189 178 181 183 186 185 183 184 187 187 187 188 190 192 194 197 201 203 206 210 211 216 218 218 222 225 228 234 237 239 242 245 247 249 251 253 254 256 257 258 260 259 257 254 253 253 254 254 258 262 259 253 251 248 244 244 244 244 243 240 243 244
159 164 184 210 64 103 117 115 67 33 257 197 165 251 260 290 286 276 213 253 252 234 231 240 248 245 231 252 250 234 237 225 211 239 232 167 165 181 191 189 186 186 186 188 191 191 192 193 194 196 200 205 207 208 211 214 218 221 223 226 230 232 235 238 242 245 249 251 252 254 255 257 258 257 258 260 260 257 255 254 253 254 256 255 257 257 253 251 249 245 244 244 242 240 239 242 243
147 175 171 141 48 60 135 185 123 165 240 212 156 243 258 235 259 287 317 247 233 200 211 242 247 231 223 233 234 229 225 223 258 259 261 273 228 205 199 191 187 187 188 190 193 194 195 196 197 199 202 206 209 211 213 216 220 223 227 230 234 237 239 243 246 248 251 251 252 254 255 256 258 259 261 262 261 259 256 255 254 254 256 253 250 255 256 253 251 249 248 247 245 242 240 242 242
329 205 146 120 196 206 184 189 171 185 227 246 193 240 265 216 218 315 287 240 238 212 191 227 232 214 211 219 221 230 224 208 232 233 225 251 244 228 209 195 190 187 187 190 192 195 197 198 201 203 206 210 212 215 216 220 224 226 230 234 237 240 243 246 249 251 252 252 254 257 258 260 263 264 265 263 261 260 257 257 255 254 255 253 247 251 256 255 253 251 250 249 248 246 244 245 245
58 145 128 353 263 219 187 161 168 202 210 240 229 227 243 214 200 228 235 233 236 220 196 216 225 214 207 209 207 215 211 180 156 152 189 217 229 227 212 197 191 187 187 188 189 194 197 199 203 204 208 212 214 217 219 222 226 229 233 237 238 241 243 246 249 251 253 256 259 262 263 265 266 267 267 265 262 260 259 258 257 256 255 253 250 250 253 255 255 253 251 251 251 249 249 249 248
157 171 174 181 152 28 231 146 67 230 204 212 245 248 242 214 168 207 227 236 194 207 251 240 233 230 216 208 214 212 186 153 142 140 168 199 207 211 201 192 189 187 188 189 191 195 197 199 204 206 209 213 214 217 219 222 226 229 233 236 238 241 243 245 248 250 252 255 256 258 259 261 262 264 265 264 263 261 260 260 259 258 257 256 255 253 251 253 255 255 252 253 254 252 251 252 251
162 193 184 181 155 131 192 198 126 351 246 194 237 267 262 170 163 216 229 262 90 223 266 261 259 261 241 227 239 234 186 140 141 154 171 179 182 188 186 182 185 187 190 193 194 197 199 200 203 207 211 215 217 219 221 224 227 230 234 236 237 240 242 245 249 251 253 255 256 258 260 261 261 262 262 262 263 262 262 262 261 260 259 259 258 256 254 253 254 257 256 254 254 253 253 253 252